Torna al catalogo

FENGYUN 1C DEB

AttivoSSO
NORAD 30062·DEBRIS·🇨🇳 China

Lanciato May 10, 1999 da Taiyuan Satellite Launch Center

Loading…

Prossimi Passaggi (prossime 24 ore)

TLE

AggiornatoSource: Space-Track

Epoca: Sep 14, 2026, 06:06 UTC

1 30062U 99025PP  26257.25478439  .00000466  00000-0  29903-3 0  9992
2 30062  98.7796 263.6095 0048597 353.3497  67.5177 14.07432725  7800

Traccia FENGYUN 1C DEB in tempo reale con AllMySat

Download on the App Store